[[{"header":{"parameterUnit":"m.s-1","parameterCategory":1,"la1":30.2991,"la2":30.254,"lo1":-89.0895,"lo2":-89.0444,"dy":0.0017,"dx":0.0017,"nx":28,"ny":28,"refTime":"2024-04-09T21:00:00:Z","depth":0,"parameterNumber":2,"parameterNumberName":"U-component_of_WINDS"},"data":[0,0,0,0,0,0,0,0,0,0,0,0,0,0,0,0,0,0,0,0,0,0,0,0,0,0,0,0,0,0,0,0,0,0,0,0,0,0,0,0,0,0,0,0,0,0,0,0,0,0,0,0,0,0,0,0,0,0,-6.8253,-6.8254,0,-6.8406,-6.8408,-6.841,-6.8387,-6.8385,-6.8382,-6.838,-6.8533,-6.8539,-6.8545,0,0,0,0,0,0,0,0,0,0,0,0,0,-6.7937,-6.7943,-6.8253,-6.8255,-6.8256,-6.8406,-6.8408,-6.841,-6.8388,-6.8385,-6.8381,-6.8378,-6.8531,-6.8538,-6.8546,0,0,0,0,0,0,0,0,0,0,0,0,0,-6.8081,-6.7945,-6.8252,-6.8263,-6.8266,-6.8406,-6.8408,-6.8411,-6.8388,-6.8384,-6.8381,-6.8377,-6.8528,-6.8538,-6.8547,-6.8684,0,0,-6.8577,-6.8581,0,0,0,0,0,0,0,0,-6.8073,-6.8092,-6.826,-6.8263,-6.8266,-6.8374,-6.8353,-6.8502,-6.8389,-6.8342,-6.838,-6.8375,-6.8483,-6.8496,-6.8533,-6.8691,-6.8698,-6.8578,-6.8584,-6.8588,-6.859,0,0,0,0,0,0,0,-6.8063,-6.8086,-6.8313,-6.8262,-6.8266,-6.826,-6.8276,-6.8381,-6.8432,-6.8346,-6.8344,-6.8363,-6.8484,-6.8524,-6.8536,-6.87,-6.8577,-6.8586,-6.8592,-6.8596,-6.898,-6.8984,0,0,0,0,0,0,-6.805,-6.8078,-6.8308,-6.8318,-6.8158,-6.8269,-6.8287,-6.8343,-6.8431,-6.844,-6.8366,-6.8361,-6.8509,-6.8525,-6.8542,-6.8707,-6.8588,-6.8597,-6.8602,-6.8975,-6.8981,-6.8985,0,0,0,0,0,0,-6.8044,-6.8071,-6.8302,-6.8198,-6.8227,-6.8278,-6.8342,-6.8348,-6.8388,-6.8446,-6.8455,-6.8398,-6.8507,-6.8528,-6.8649,-6.8712,-6.8601,-6.861,-6.897,-6.8977,-6.8983,-6.904,0,0,0,0,0,0,-6.8035,-6.8069,-6.8122,-6.8199,-6.8232,-6.8408,-6.8346,-6.8354,-6.8405,-6.8401,-6.8478,-6.8487,-6.8505,-6.8635,-6.8659,-6.8724,-6.8618,-6.8965,-6.8973,-6.8981,-6.9033,-6.9048,-6.9061,0,0,0,0,0,-6.8024,-6.8131,-6.8124,-6.8152,-6.83,-6.8412,-6.843,-6.845,-6.8411,-6.8464,-6.8502,-6.8485,-6.8703,-6.8648,-6.8675,-6.8743,-6.8961,-6.8971,-6.898,-6.9026,-6.9045,-6.906,0,0,0,0,0,0,-6.8057,-6.8141,-6.8135,-6.827,-6.8334,-6.8407,-6.8475,-6.8469,-6.8544,-6.8536,-6.8556,-6.8574,-6.8696,-6.8732,-6.867,-6.8881,-6.8826,-6.8842,-6.8852,-6.887,-6.8884,-6.887,-6.8626,0,0,0,0,0,-6.8081,-6.8166,-6.8234,-6.8347,-6.838,-6.8422,-6.8472,-6.8482,-6.8548,-6.8574,-6.8621,-6.8685,-6.8768,-6.8821,-6.8901,-6.9039,-6.9055,-6.91,-6.9114,-6.9125,-6.9137,-6.9213,-6.9233,-6.9018,-6.9017,-6.9017,0,0,-6.8129,-6.8186,-6.8237,-6.8355,-6.8406,-6.8492,-6.8445,-6.8538,-6.8602,-6.8588,-6.8705,-6.8742,-6.8815,-6.8946,-6.9005,-6.8979,-6.9201,-6.9138,-6.9146,-6.9152,-6.9225,-6.9245,-6.9263,-6.9024,-6.9023,-6.9022,0,0,-6.8261,-6.8314,-6.8413,-6.8466,-6.8544,-6.8572,-6.8597,-6.8672,-6.8696,-6.8815,-6.8806,-6.8883,-6.9026,-6.9078,-6.9123,-6.9279,-6.9266,-6.9305,-6.9376,-6.945,-6.9466,-6.9481,-6.9535,-6.9555,-6.9318,-6.9318,-6.9318,0,-6.831,-6.8442,-6.8465,-6.856,-6.8611,-6.8606,-6.8706,-6.8756,-6.8856,-6.8891,-6.8862,-6.9042,-6.909,-6.9233,-6.9271,-6.9309,-6.9336,-6.9294,-6.9463,-6.9478,-6.9492,-6.9544,-6.9564,-6.9322,-6.9321,-6.9321,-6.9321,0,-6.8498,-6.859,-6.8661,-6.8759,-6.882,-6.8917,-6.8954,-6.9012,-6.9019,-6.905,-6.9171,-6.923,-6.9321,-6.9357,-6.9363,-6.9501,-6.9482,-6.9458,-6.9402,-6.9516,-6.9565,-6.9585,-6.9328,-6.9326,-6.9325,-6.9324,0,0,-6.865,-6.8764,-6.8789,-6.8834,-6.8922,-6.8992,-6.909,-6.9181,-6.923,-6.9301,-6.9382,-6.9505,-6.9483,-6.9535,-6.9547,-6.9612,-6.9731,-6.958,-6.9582,-6.9604,-6.9885,-6.99,-6.9922,-6.9725,-6.9729,-6.9732,-6.9878,0,-6.8789,-6.8962,-6.8987,-6.914,-6.9224,-6.9222,-6.9307,-6.937,-6.9403,-6.9479,-6.9515,-6.9601,-6.9568,-6.9599,-6.9663,-6.9703,-6.9787,-6.9693,-6.9798,-6.9802,-6.9776,-6.9948,-6.9964,-7.0098,-6.9897,-6.99,-6.9903,0,-6.8972,-6.9049,-6.9211,-6.9288,-6.9325,-6.9401,-6.9487,-6.9561,-6.9632,-6.9652,-6.9711,-6.9717,-6.9818,-6.9762,-6.99,-6.9836,-6.9882,-6.9908,-6.9914,-6.9921,-6.9856,-6.9957,-7.0142,-7.0161,-6.9933,-6.9931,-6.9929,0,-6.9063,-6.9208,-6.9324,-6.9363,-6.9457,-6.951,-6.9552,-6.962,-6.9674,-6.975,-6.9785,-6.9872,-6.9918,-6.9985,-7.0013,-6.997,-7.015,-7.0096,-7.0167,-7.0166,-7.02,-7.0197,-7.0392,-7.0236,-7.0236,-7.0236,-7.0235,0,-6.9213,-6.9311,-6.9366,-6.9437,-6.9547,-6.9576,-6.9684,-6.9724,-6.9785,-6.9863,-6.9868,-6.994,-6.9975,-7.0053,-7.0077,-7.0187,-7.0209,-7.0226,-7.023,-7.0224,-7.0221,-7.025,-7.024,-7.0241,-7.024,-7.0239,-7.0238,0,-6.9331,-6.9373,-6.9498,-6.9579,-6.9602,-6.9679,-6.9747,-6.9816,-6.985,-6.9949,-6.9973,-7.0027,-7.0119,-7.0156,-7.0268,-7.0284,-7.041,-7.0409,-7.0386,-7.0386,-7.0454,-7.0445,-7.0671,-7.0701,-7.0529,-7.053,-7.0532,0,-6.9422,-6.9498,-6.9588,-6.9641,-6.9685,-6.9771,-6.9826,-6.9859,-6.9917,-7.0006,-7.0063,-7.0156,-7.0232,-7.038,-7.0427,-7.0514,-7.0512,-7.0586,-7.0525,-7.0516,-7.051,-7.0504,-7.0511,-7.0595,-7.0597,-7.0599,-7.06,0,-6.9578,-6.9595,-6.9676,-6.9765,-6.9832,-6.9904,-6.9973,-7.0016,-7.0059,-7.0124,-7.022,-7.0279,-7.0395,-7.0486,-7.0576,-7.0618,-7.0616,-7.062,-7.064,-7.0631,-7.0614,-7.0622,-7.0413,-7.0613,-7.0612,-7.0611,-7.061,-7.0609,-6.9683,-6.975,-6.9825,-6.9915,-6.9972,-7.0037,-7.0105,-7.015,-7.023,-7.0328,-7.0343,-7.0445,-7.0517,-7.0637,-7.0684,-7.0763,-7.0744,-7.0774,-7.0781,-7.0787,-7.079,-7.0605,-7.078,-7.078,-7.078,-7.0779,-7.0779,0,-6.9836,-6.9885,-6.9968,-7.0066,-7.0138,-7.0133,-7.0211,-7.027,-7.036,-7.0428,-7.0503,-7.0613,-7.0703,-7.076,-7.085,-7.0903,-7.0904,-7.0925,-7.092,-7.0929,-7.0804,-7.0776,-7.0923,-7.0923,-7.0923,-7.0923,-7.0923,-7.0923,-6.9924,-7.0037,-7.0065,-7.0206,-7.0255,-7.0355,-7.04,-7.046,-7.0515,-7.0638,-7.0713,-7.0751,-7.0815,-7.091,-7.0992,-7.1007,-7.1038,-7.106,-7.1073,-7.0953,-7.0938,-7.0924,-7.0897,-7.1068,-7.1068,-7.1191,-7.1192,-7.1193]},{"header":{"parameterUnit":"m.s-1","parameterCategory":1,"la1":30.2991,"la2":30.254,"lo1":-89.0895,"lo2":-89.0444,"dy":0.0017,"dx":0.0017,"nx":28,"ny":28,"refTime":"2024-04-09T21:00:00:Z","depth":0,"parameterNumber":3,"parameterNumberName":"V-component_of_WINDS"},"data":[0,0,0,0,0,0,0,0,0,0,0,0,0,0,0,0,0,0,0,0,0,0,0,0,0,0,0,0,0,0,0,0,0,0,0,0,0,0,0,0,0,0,0,0,0,0,0,0,0,0,0,0,0,0,0,0,0,0,2.6046,2.6047,0,2.6126,2.6127,2.6128,2.6164,2.6164,2.6164,2.6163,2.6241,2.6243,2.6245,0,0,0,0,0,0,0,0,0,0,0,0,0,2.592,2.5922,2.6046,2.6047,2.6048,2.6126,2.6127,2.6128,2.6164,2.6164,2.6163,2.6163,2.624,2.6243,2.6245,0,0,0,0,0,0,0,0,0,0,0,0,0,2.5985,2.5923,2.6045,2.6075,2.6078,2.6126,2.6127,2.6128,2.6164,2.6164,2.6163,2.6163,2.6239,2.6242,2.6246,2.6268,0,0,2.6255,2.6257,0,0,0,0,0,0,0,0,2.5981,2.5989,2.607,2.6073,2.6077,2.6135,2.6111,2.6175,2.6164,2.6131,2.6163,2.6163,2.6205,2.6211,2.6227,2.6272,2.6275,2.6256,2.6258,2.6259,2.626,0,0,0,0,0,0,0,2.5976,2.5986,2.6077,2.6071,2.6075,2.6083,2.6092,2.6123,2.6168,2.6134,2.6137,2.6146,2.6207,2.6223,2.6229,2.6276,2.6256,2.6258,2.626,2.6262,2.6345,2.6345,0,0,0,0,0,0,2.5968,2.5982,2.6075,2.608,2.6028,2.6086,2.6096,2.6116,2.6168,2.6175,2.6146,2.6147,2.6218,2.6225,2.6231,2.6262,2.6259,2.6262,2.6264,2.6345,2.6345,2.6345,0,0,0,0,0,0,2.5965,2.5976,2.6071,2.6032,2.6045,2.6088,2.6111,2.6118,2.6134,2.6177,2.6185,2.6155,2.6218,2.6227,2.6259,2.6265,2.6263,2.6266,2.6344,2.6345,2.6345,2.6323,0,0,0,0,0,0,2.5961,2.5974,2.5984,2.6032,2.6047,2.6099,2.6111,2.612,2.614,2.6143,2.6187,2.6194,2.6219,2.6254,2.6262,2.627,2.6269,2.6344,2.6344,2.6345,2.6324,2.6323,2.6322,0,0,0,0,0,2.5956,2.5973,2.5984,2.5995,2.606,2.6099,2.6108,2.6137,2.614,2.615,2.6178,2.6193,2.6263,2.6257,2.6267,2.6275,2.6344,2.6344,2.6345,2.6324,2.6323,2.6322,0,0,0,0,0,0,2.5923,2.598,2.5993,2.6026,2.6058,2.6105,2.6118,2.6135,2.6165,2.6166,2.62,2.6209,2.6239,2.626,2.6253,2.63,2.6305,2.6307,2.6286,2.6285,2.6284,2.6279,2.6272,0,0,0,0,0,2.592,2.5948,2.5996,2.602,2.6036,2.6074,2.6093,2.6113,2.6147,2.616,2.619,2.6221,2.625,2.6269,2.6298,2.6327,2.6337,2.6337,2.6336,2.6336,2.6338,2.6356,2.6356,2.6347,2.6347,2.6347,0,0,2.5912,2.5947,2.5963,2.6015,2.6042,2.607,2.6085,2.6114,2.6135,2.6163,2.6197,2.622,2.6257,2.6288,2.6303,2.6306,2.6342,2.6336,2.6336,2.6338,2.6356,2.6357,2.6358,2.6348,2.6348,2.6348,0,0,2.5915,2.5943,2.5968,2.5996,2.6037,2.6063,2.6069,2.6114,2.6132,2.6166,2.6188,2.6213,2.6262,2.6288,2.6308,2.6321,2.6336,2.633,2.6326,2.6343,2.6344,2.6345,2.6351,2.6352,2.6331,2.6331,2.6331,0,2.59,2.5945,2.5978,2.6007,2.6029,2.6058,2.6083,2.6107,2.6155,2.617,2.6173,2.6237,2.6264,2.6302,2.6306,2.632,2.6328,2.6325,2.6342,2.6343,2.6344,2.635,2.6352,2.633,2.6331,2.6331,2.6331,0,2.5926,2.5957,2.5971,2.602,2.6043,2.607,2.6106,2.6126,2.6144,2.6169,2.6204,2.6237,2.6275,2.6285,2.6302,2.6326,2.6327,2.6335,2.6341,2.6344,2.635,2.6352,2.6329,2.6329,2.633,2.633,0,0,2.5908,2.5976,2.5981,2.6004,2.6053,2.6077,2.6104,2.6143,2.616,2.6192,2.6216,2.6258,2.6267,2.6289,2.631,2.6325,2.6335,2.6332,2.6333,2.6332,2.6364,2.6358,2.636,2.6345,2.6345,2.6346,2.6362,0,2.5918,2.5971,2.6002,2.6042,2.6071,2.6099,2.6124,2.6155,2.618,2.6207,2.6233,2.6263,2.6272,2.6286,2.6302,2.633,2.6342,2.6329,2.6367,2.6368,2.6358,2.6363,2.6357,2.637,2.6364,2.6364,2.6365,0,2.5936,2.597,2.6014,2.6061,2.6074,2.6096,2.6134,2.616,2.6197,2.6214,2.624,2.626,2.629,2.6293,2.6334,2.6325,2.6342,2.6358,2.6359,2.6365,2.6367,2.6369,2.6375,2.6377,2.6369,2.6368,2.6368,0,2.592,2.5977,2.6011,2.603,2.6085,2.61,2.6123,2.616,2.6182,2.6215,2.6229,2.6264,2.6284,2.631,2.634,2.6339,2.6378,2.6383,2.6393,2.6392,2.64,2.6399,2.6409,2.641,2.641,2.641,2.6409,0,2.5928,2.5953,2.6005,2.6026,2.6055,2.6091,2.6118,2.6144,2.6177,2.6203,2.6228,2.6251,2.6289,2.6317,2.634,2.6371,2.6379,2.6393,2.6399,2.6391,2.639,2.6403,2.6403,2.641,2.641,2.641,2.641,0,2.5915,2.5951,2.599,2.604,2.6054,2.6073,2.6116,2.6137,2.6163,2.6195,2.6205,2.6245,2.6279,2.6312,2.6356,2.6372,2.6403,2.6411,2.6392,2.6395,2.6403,2.6402,2.6423,2.6428,2.6424,2.6424,2.6424,0,2.5918,2.5939,2.5993,2.6013,2.6037,2.6068,2.6091,2.6127,2.6149,2.6194,2.6209,2.6246,2.6277,2.633,2.6362,2.6397,2.6406,2.6411,2.6411,2.6403,2.6407,2.6406,2.6409,2.641,2.641,2.641,2.641,0,2.592,2.5937,2.5971,2.601,2.6038,2.607,2.6103,2.6118,2.6159,2.6183,2.622,2.6244,2.6291,2.6327,2.6366,2.6389,2.6406,2.6409,2.6414,2.6406,2.6395,2.6402,2.6391,2.6409,2.6409,2.6409,2.6409,2.6409,2.5916,2.5937,2.5979,2.6015,2.6044,2.6075,2.6098,2.6128,2.616,2.6202,2.6221,2.6258,2.6295,2.6349,2.6372,2.64,2.6404,2.641,2.6412,2.6413,2.6412,2.639,2.6407,2.6407,2.6407,2.6407,2.6408,0,2.5921,2.5949,2.5983,2.603,2.6058,2.6074,2.6112,2.6135,2.6168,2.6202,2.6233,2.6275,2.631,2.6346,2.6383,2.6399,2.6408,2.6408,2.6407,2.6413,2.6406,2.6399,2.64,2.64,2.64,2.64,2.64,2.64,2.5926,2.5963,2.5985,2.6036,2.6064,2.6102,2.6123,2.6151,2.6179,2.6226,2.6256,2.628,2.6315,2.6355,2.6388,2.6398,2.641,2.6408,2.642,2.6413,2.6413,2.6413,2.6407,2.641,2.641,2.6425,2.6425,2.6425]}]]